Location: Jackson Park
(37.2862°N, 79.9123°W)
Time: 19:43:53
(UTC+00:00)

Vanguard 2 - Pass Details

Date: 10 May 2026
Orbit: 553 x 2894 km, 32.9° (Epoch: 6 June)

Event Time Altitude Azimuth Distance (km) Brightness Sun altitude
Rises 11:38:19 0° 269° (W) 6,510 11.6 14.9°
Reaches altitude 10° 11:43:02 10° 267° (W) 5,278 11.2 15.8°
Maximum altitude 11:57:34 70° 188° (S) 1,947 9.8 18.7°
Drops below altitude 10° 12:06:21 10° 107° (ESE) 3,338 12.2 20.4°
Sets 12:08:41 0° 105° (ESE) 4,057 12.4 20.9°
